FW6259 Weather Reports


time (UTC)temp
F
wind
direction
speed
knots
gust
knots
rain 1hr
in
rain 24hr
in
rain mn
in
humidity
%
barometer
mb
20260904090055 43 233 0.0 0.9 0.00 0.00 0.00 78 1023.6
20260904084549 43 281 0.0 0.0 0.00 0.00 0.00 77 1023.8
20260904083003 44 234 0.0 0.9 0.00 0.00 0.00 75 1023.7
20260904081636 44 245 1.7 3.5 0.00 0.00 0.00 76 1023.4
20260904080043 44 251 0.0 0.0 0.00 0.00 0.00 75 1023.6
20260904074501 45 251 0.0 0.0 0.00 0.00 0.00 72 1023.6
20260904073104 45 250 0.0 0.9 0.00 0.00 0.00 73 1023.8
20260904071547 45 346 0.0 0.9 0.00 0.00 0.00 73 1023.8
20260904070109 46 346 0.0 0.0 0.00 0.00 0.00 73 1023.7
20260904064551 46 345 0.0 0.0 0.00 0.00 0.00 70 1023.9
20260904063054 46 345 0.9 2.6 0.00 0.00 0.00 70 1023.9
20260904061604 48 3 0.0 0.9 0.00 0.00 0.00 68 1023.8
20260904060048 49 18 0.0 0.0 0.00 0.00 0.00 64 1023.6
20260904054550 50 18 0.0 0.0 0.00 0.00 0.00 64 1023.7
20260904053059 51 16 0.0 0.9 0.00 0.00 0.00 62 1023.5
20260904051555 51 14 0.0 1.7 0.00 0.00 0.00 62 1023.4
20260904050045 50 354 0.9 2.6 0.00 0.00 0.00 63 1023.4
20260904044503 51 162 0.0 1.7 0.00 0.00 0.00 65 1023.6
20260904043058 51 115 0.0 0.9 0.00 0.00 0.00 66 1023.7
20260904041547 52 11 0.0 0.9 0.00 0.00 0.00 64 1023.6
20260904040058 53 13 0.0 0.9 0.00 0.00 0.00 61 1023.5
20260904034554 54 13 0.0 0.0 0.00 0.00 0.00 61 1023.4
20260904033043 55 13 0.0 0.9 0.00 0.00 0.00 57 1023.5
20260904031558 56 96 0.0 3.5 0.00 0.00 0.00 56 1023.5
20260904030053 57 79 0.9 2.6 0.00 0.00 0.00 54 1023.5
20260904024550 57 61 0.0 3.5 0.00 0.00 0.00 54 1023.6
20260904023058 57 62 0.9 2.6 0.00 0.00 0.00 52 1023.6
20260904021557 57 114 0.0 3.5 0.00 0.00 0.00 52 1023.6
20260904020045 57 75 0.9 3.5 0.00 0.00 0.00 52 1023.7
20260904014642 58 89 0.9 1.7 0.00 0.00 0.00 50 1023.9
20260904013056 58 293 0.0 4.3 0.00 0.00 0.00 48 1024.0
20260904011547 59 270 0.9 3.5 0.00 0.00 0.00 48 1024.1
20260904010057 58 257 0.0 2.6 0.00 0.00 0.00 51 1024.1
20260904004553 56 69 0.0 1.7 0.00 0.00 0.00 51 1024.1
20260904003042 56 102 0.0 1.7 0.00 0.00 0.00 51 1024.3
20260904001554 55 248 0.0 1.7 0.00 0.00 0.00 51 1024.5
20260904000137 55 113 0.9 2.6 0.00 0.00 0.00 50 1024.5
20260903234547 56 144 0.9 3.5 0.00 0.00 0.00 51 1024.3
20260903233058 56 72 0.9 2.6 0.00 0.00 0.00 49 1024.7
20260903231601 55 98 0.9 2.6 0.00 0.00 0.00 50 1025.1
20260903230044 55 293 0.9 3.5 0.00 0.00 0.00 50 1025.4
20260903224503 55 198 0.9 5.2 0.00 0.00 0.00 49 1025.0
20260903223050 54 243 2.6 5.2 0.00 0.00 0.00 50 1025.2
20260903221506 54 241 2.6 4.3 0.00 0.00 0.00 51 1025.3
20260903220113 53 231 0.9 4.3 0.00 0.00 0.00 50 1025.1
20260903214558 53 259 1.7 6.1 0.00 0.00 0.00 49 1025.5
20260903213049 52 228 0.9 3.5 0.00 0.00 0.00 48 1025.2
20260903211501 52 260 1.7 5.2 0.00 0.00 0.00 52 1025.6
20260903210054 53 258 0.9 3.5 0.00 0.00 0.00 55 1025.5
20260903204551 52 264 2.6 5.2 0.00 0.00 0.00 54 1025.7
20260903203003 52 238 2.6 7.8 0.00 0.00 0.00 54 1025.7
20260903201557 52 214 2.6 6.1 0.00 0.00 0.00 52 1025.7
20260903200053 52 162 1.7 3.5 0.00 0.00 0.00 54 1025.4
20260903194509 49 290 0.0 2.6 0.00 0.00 0.00 57 1025.5
20260903193055 48 221 0.9 3.5 0.00 0.00 0.00 60 1025.5
20260903191553 47 258 0.0 3.5 0.00 0.00 0.00 64 1025.8
20260903190107 45 287 1.7 3.5 0.00 0.00 0.00 64 1025.8
20260903184552 44 170 1.7 5.2 0.00 0.01 0.00 67 1026.0
20260903183047 43 167 0.9 1.7 0.00 0.01 0.00 70 1025.9
20260903181558 42 244 0.9 1.7 0.00 0.01 0.00 70 1025.8
20260903180054 44 125 0.9 2.6 0.00 0.01 0.00 69 1025.7
20260903174548 42 244 0.0 1.7 0.00 0.01 0.00 76 1025.6
20260903173058 41 116 0.0 1.7 0.00 0.01 0.00 76 1025.6
20260903171557 42 112 0.0 1.7 0.00 0.01 0.00 77 1026.0
20260903170057 39 260 0.0 0.0 0.00 0.01 0.00 84 1025.8
20260903164503 35 264 0.0 0.9 0.00 0.01 0.00 89 1025.6
20260903163109 33 18 0.0 0.0 0.00 0.01 0.00 91 1025.2
20260903161549 33 20 0.0 0.0 0.00 0.01 0.00 91 1024.9
20260903154554 30 20 0.0 0.0 0.00 0.01 0.00 93 1025.0
20260903153045 29 20 0.0 0.0 0.00 0.01 0.00 93 1024.9
20260903151556 29 20 0.0 0.0 0.00 0.01 0.00 92 1024.8
20260903150110 29 20 0.0 0.0 0.00 0.01 0.00 93 1024.9
20260903144548 29 20 0.0 0.0 0.00 0.01 0.00 94 1024.8
20260903143100 29 20 0.0 0.0 0.00 0.01 0.00 93 1024.8
20260903141559 29 20 0.0 0.0 0.00 0.01 0.00 94 1024.5
20260903140047 28 20 0.0 0.0 0.00 0.01 0.00 93 1024.3
20260903134503 28 20 0.0 0.0 0.00 0.01 0.00 93 1024.2
20260903133053 28 20 0.0 0.0 0.00 0.01 0.00 91 1024.4
20260903131547 29 20 0.0 0.0 0.00 0.01 0.00 94 1024.1
20260903130105 28 20 0.0 0.0 0.00 0.01 0.00 94 1024.0
20260903124602 29 20 0.0 0.0 0.00 0.01 0.00 95 1023.9
20260903123044 29 20 0.0 0.0 0.00 0.01 0.00 92 1023.8
20260903121600 30 21 0.0 0.0 0.00 0.01 0.00 92 1023.6
20260903120053 30 20 0.0 0.0 0.00 0.01 0.00 92 1023.6
20260903114502 30 20 0.0 0.0 0.00 0.01 0.00 92 1023.3
20260903113105 30 20 0.0 0.0 0.00 0.01 0.00 92 1023.2
20260903111614 31 20 0.0 0.0 0.00 0.01 0.00 93 1023.3
20260903110047 31 20 0.0 0.0 0.00 0.01 0.00 90 1023.2
20260903104501 31 20 0.0 0.0 0.00 0.01 0.00 92 1023.2
20260903103104 30 20 0.0 0.9 0.00 0.01 0.00 92 1023.0
20260903101556 30 20 0.0 0.9 0.00 0.01 0.00 91 1022.9
20260903100002 30 20 0.0 0.0 0.00 0.01 0.00 92 1022.7
20260903094600 31 20 0.0 0.9 0.00 0.01 0.00 89 1022.6
20260903093121 31 89 0.0 0.0 0.00 0.01 0.00 88 1022.5
20260903091600 32 89 0.0 0.0 0.00 0.01 0.00 89 1022.2